User: anonymous   Login
Location: *
(48.8489°N, 2.3218°E)
Time: 21:34:29
(UTC+00:00)
Language:

Meteor 2-9 Rocket - Orbit

View from above orbital plane
View from above orbital plane
View from above satellite
View from above satellite

Ground track
Ground track

The orbit data is extracted from the following two-line orbital elements,

1 13719U 82116B   19287.90077745 -.00000060  00000-0 -37138-4 0  9999
2 13719  81.2535 247.9370 0072651  88.8479 327.7083 14.14643439900507
Epoch (UTC): 14 October 2019 21:37:07
Eccentricity: 0.0072651
inclination: 81.2535°
perigee height: 791 km
apogee height: 896 km
right ascension of ascending node: 247.9370°
argument of perigee: 88.8479°
revolutions per day: 14.14643439
mean anomaly at epoch: 327.7083°
orbit number at epoch: 90050

The dashed part of the orbit path shows where the satellite is in the earth's shadow,  

DLR